Flag for U.S.A. Weather past 2 weeks in Hopkinsville, Kentucky, U.S.A.

Now
85 °F

Partly sunny.


Feels Like: 87 °F
Forecast: 64 / 85 °F
Wind: 3 mph from North

Location: Fort Campbell U. S. Army Airfield

Current Time: Aug 31, 2015 at 5:49:45 PM

Latest Report: Aug 31, 2015 at 3:58 PM


Visibility: 10 mi

Pressure: 30.06 "Hg

Humidity: 52%

Dew point: 66 °F

Location of HopkinsvilleLocation

Historic Weather in Hopkinsville — Graph

°F

Hopkinsville temperature yesterday

Maximum temperature yesterday: 87 °F (at 2:58 PM)
Minimum temperature yesterday: 69 °F (at 6:58 AM)
Average temperature yesterday: 75 °F

Past Weeks' High & Low Weather Summary

 TemperatureHumidityPressure
High89 °F (Aug 29, 2:58 PM)100% (Aug 18, 3:00 AM)30.16 "Hg (Aug 18, 3:00 AM)
Low54 °F (Aug 26, 5:58 AM)39% (Aug 25, 1:58 PM)29.80 "Hg (Aug 19, 5:58 PM)
Average73 °F75%30.03 "Hg
* Reported Aug 16 3:58 PM — Aug 31 3:58 PM, Hopkinsville, Weather by CustomWeather, © 2015

Note: Actual official high and low records may vary slightly from our data, if they occured in-between our weather recording intervals... More about our weather records

Advertising

Hopkinsville weather history for previous 24 hours

 ConditionsComfort  
Time TempWeatherWind HumidityBarometerVisibility
3:58 PM
Mon, Aug 31
85 °FPartly sunny.3 mph52%30.06 "Hg10 mi
2:58 PM84 °FPartly sunny.No wind55%30.08 "Hg10 mi
1:58 PM84 °FPassing clouds.1 mph56%30.10 "Hg10 mi
12:58 PM82 °FSunny.No wind57%30.11 "Hg10 mi
11:58 AM82 °FPassing clouds.3 mph62%30.13 "Hg10 mi
10:58 AM79 °FSunny.1 mph67%30.13 "Hg10 mi
9:58 AM76 °FSunny.3 mph74%30.14 "Hg10 mi
8:58 AM75 °FSunny.5 mph76%30.13 "Hg10 mi
7:58 AM68 °FSunny.1 mph92%30.13 "Hg10 mi
6:58 AM65 °FSunny.3 mph98%30.11 "Hg10 mi
6:04 AM64 °FFog.2 mph100%30.10 "Hg1 mi
6:02 AM64 °FFog.2 mph100%30.10 "Hg1 mi
4:58 AM67 °FClear.No wind94%30.07 "Hg10 mi
3:58 AM67 °FClear.No wind95%30.06 "Hg10 mi
2:58 AM67 °FClear.5 mph96%30.05 "Hg10 mi
1:58 AM69 °FClear.1 mph95%30.05 "Hg10 mi
12:58 AM70 °FClear.3 mph93%30.05 "Hg10 mi
11:58 PM
Sun, Aug 30
71 °FClear.5 mph94%30.07 "Hg10 mi
10:58 PM71 °FPassing clouds.3 mph95%30.06 "Hg10 mi
9:58 PM72 °FPassing clouds.3 mph94%30.07 "Hg10 mi
8:58 PM73 °FPassing clouds.1 mph90%30.06 "Hg10 mi
7:58 PM73 °FClear.3 mph92%30.04 "Hg10 mi
6:58 PM72 °FScattered clouds.3 mph94%30.05 "Hg10 mi
5:58 PM72 °FLight rain. Overcast.No wind93%30.06 "Hg7 mi
Weather by CustomWeather, © 2015

See weather overviewHow to use our weather pages